FIN2PG EFHK-EBBR

Flight info

Callsign FIN2PG
Flight time 2h 19m
Altitude 36000
Route NUNTO Y369 REKDO DCT KOSKA DCT KOKOR DCT KEGAB DCT MAWEQ Y348 DOMEG/N0393F240 N853 IRBUP Z717 NEREL T855 AGENI/N0361F180 T855 BATTY
Aircraft A321/M-SADE1E2E3FGIJ1M3RWXYZ/LB1

Departure

Time 2026-04-26 06:09
Airport Helsinki Vantaa Airport (EFHK)

Arrival

Time 2026-04-26 08:28
Airport Brussels Airport (EBBR)
Time Latitude Longitude Altitude Speed Heading
2026-04-26 05:43 60.31645 24.95931 167 ft 0 kts 130°
2026-04-26 06:03 60.31655 24.95907 145 ft 4 kts 133°
2026-04-26 06:03 60.31675 24.95871 172 ft 4 kts 147°
2026-04-26 06:03 60.31697 24.95851 167 ft 4 kts 188°
2026-04-26 06:03 60.31708 24.95859 167 ft 0 kts 227°
2026-04-26 06:05 60.31706 24.95853 167 ft 3 kts 227°
2026-04-26 06:05 60.31679 24.95793 167 ft 7 kts 227°
2026-04-26 06:06 60.31646 24.95709 167 ft 8 kts 242°
2026-04-26 06:06 60.31665 24.95613 167 ft 8 kts 317°
2026-04-26 06:06 60.31702 24.95524 168 ft 9 kts 286°
2026-04-26 06:06 60.31682 24.95420 170 ft 9 kts 232°
2026-04-26 06:07 60.31652 24.95349 170 ft 13 kts 227°
2026-04-26 06:07 60.31549 24.95121 170 ft 18 kts 227°
2026-04-26 06:07 60.31492 24.94997 168 ft 19 kts 228°
2026-04-26 06:07 60.31411 24.94806 165 ft 14 kts 245°
2026-04-26 06:08 60.31447 24.94625 164 ft 15 kts 312°
2026-04-26 06:08 60.31496 24.94510 162 ft 6 kts 313°
2026-04-26 06:08 60.31528 24.94509 163 ft 4 kts 36°
2026-04-26 06:08 60.31536 24.94529 164 ft 3 kts 49°
2026-04-26 06:09 60.31677 24.94839 170 ft 66 kts 47°
2026-04-26 06:09 60.32144 24.95864 177 ft 131 kts 47°
2026-04-26 06:09 60.32853 24.97464 411 ft 160 kts 40°
2026-04-26 06:09 60.33589 24.99126 1227 ft 158 kts 39°
2026-04-26 06:10 60.34343 25.00782 1848 ft 166 kts 37°
2026-04-26 06:10 60.35182 25.02592 2196 ft 184 kts 38°
2026-04-26 06:10 60.36071 25.04529 2721 ft 194 kts 38°
2026-04-26 06:10 60.36992 25.06555 3574 ft 195 kts 39°
2026-04-26 06:11 60.37911 25.08584 4483 ft 196 kts 39°
2026-04-26 06:11 60.38926 25.10363 5284 ft 192 kts 21°
2026-04-26 06:11 60.40203 25.10944 6078 ft 191 kts 356°
2026-04-26 06:11 60.41471 25.10062 6838 ft 202 kts 329°
2026-04-26 06:12 60.42362 25.07738 7548 ft 224 kts 297°
2026-04-26 06:12 60.42410 25.04443 8253 ft 253 kts 260°
2026-04-26 06:12 60.41662 25.01106 9009 ft 265 kts 249°
2026-04-26 06:12 60.40731 24.97856 9803 ft 269 kts 245°
2026-04-26 06:13 60.39711 24.94500 10120 ft 292 kts 244°
2026-04-26 06:13 60.38603 24.90867 10354 ft 315 kts 243°
2026-04-26 06:13 60.37419 24.86953 10542 ft 339 kts 243°
2026-04-26 06:13 60.36174 24.82782 11019 ft 350 kts 243°
2026-04-26 06:14 60.34916 24.78539 11734 ft 354 kts 243°
2026-04-26 06:14 60.33649 24.74247 12499 ft 357 kts 243°
2026-04-26 06:14 60.32377 24.69922 13277 ft 360 kts 243°
2026-04-26 06:14 60.31097 24.65557 13984 ft 362 kts 243°
2026-04-26 06:15 60.29811 24.61171 14657 ft 365 kts 242°
2026-04-26 06:15 60.28510 24.56749 15359 ft 368 kts 241°
2026-04-26 06:15 60.27200 24.52305 16082 ft 370 kts 240°
2026-04-26 06:15 60.25881 24.47847 16799 ft 372 kts 240°
2026-04-26 06:16 60.24551 24.43357 17501 ft 374 kts 239°
2026-04-26 06:16 60.23211 24.38847 18164 ft 377 kts 239°
2026-04-26 06:16 60.21858 24.34303 18746 ft 380 kts 239°
2026-04-26 06:16 60.20509 24.29778 19296 ft 384 kts 239°
2026-04-26 06:17 60.19129 24.25155 19863 ft 388 kts 240°
2026-04-26 06:17 60.17715 24.20425 20429 ft 392 kts 240°
2026-04-26 06:17 60.16302 24.15706 20987 ft 396 kts 240°
2026-04-26 06:17 60.14875 24.10953 21531 ft 400 kts 241°
2026-04-26 06:18 60.13430 24.06151 22061 ft 404 kts 241°
2026-04-26 06:18 60.11972 24.01311 22580 ft 408 kts 241°
2026-04-26 06:18 60.10515 23.96487 23074 ft 411 kts 241°
2026-04-26 06:18 60.09006 23.91504 23518 ft 415 kts 242°
2026-04-26 06:19 60.07525 23.86512 23919 ft 417 kts 243°
2026-04-26 06:19 60.06145 23.81469 24315 ft 420 kts 245°
2026-04-26 06:19 60.04800 23.76262 24693 ft 423 kts 246°
2026-04-26 06:19 60.03472 23.71002 25059 ft 426 kts 246°
2026-04-26 06:20 60.02132 23.65697 25430 ft 429 kts 246°
2026-04-26 06:20 60.00769 23.60369 25803 ft 432 kts 246°
2026-04-26 06:20 59.99374 23.55028 26165 ft 435 kts 246°
2026-04-26 06:20 59.97954 23.49675 26505 ft 438 kts 245°
2026-04-26 06:21 59.96512 23.44285 26852 ft 441 kts 246°
2026-04-26 06:21 59.95061 23.38871 27196 ft 444 kts 246°
2026-04-26 06:21 59.93598 23.33416 27520 ft 447 kts 246°
2026-04-26 06:21 59.92126 23.27929 27837 ft 450 kts 246°
2026-04-26 06:22 59.90644 23.22404 28146 ft 453 kts 246°
2026-04-26 06:22 59.89152 23.16851 28454 ft 456 kts 246°
2026-04-26 06:22 59.87650 23.11272 28756 ft 459 kts 246°
2026-04-26 06:22 59.86137 23.05661 29045 ft 462 kts 246°
2026-04-26 06:23 59.84609 23.00016 29328 ft 465 kts 246°
2026-04-26 06:23 59.83068 22.94336 29628 ft 467 kts 247°
2026-04-26 06:23 59.81518 22.88641 29900 ft 470 kts 247°
2026-04-26 06:23 59.79951 22.82917 30136 ft 473 kts 246°
2026-04-26 06:24 59.78379 22.77190 30443 ft 473 kts 246°
2026-04-26 06:24 59.76802 22.71460 30788 ft 472 kts 247°
2026-04-26 06:24 59.75242 22.65782 31124 ft 472 kts 247°
2026-04-26 06:24 59.73664 22.60044 31436 ft 472 kts 247°
2026-04-26 06:25 59.72090 22.54342 31763 ft 472 kts 247°
2026-04-26 06:25 59.70523 22.48678 32083 ft 471 kts 246°
2026-04-26 06:25 59.68937 22.42966 32395 ft 471 kts 246°
2026-04-26 06:25 59.67364 22.37316 32717 ft 471 kts 246°
2026-04-26 06:26 59.65777 22.31634 33023 ft 471 kts 246°
2026-04-26 06:26 59.64185 22.25965 33325 ft 471 kts 246°
2026-04-26 06:26 59.62590 22.20303 33624 ft 471 kts 246°
2026-04-26 06:26 59.60992 22.14626 33902 ft 471 kts 246°
2026-04-26 06:27 59.59405 22.08983 34144 ft 471 kts 246°
2026-04-26 06:27 59.57815 22.03338 34383 ft 471 kts 246°
2026-04-26 06:27 59.56243 21.97778 34621 ft 470 kts 246°
2026-04-26 06:27 59.54625 21.92076 34859 ft 470 kts 246°
2026-04-26 06:28 59.53046 21.86530 35099 ft 470 kts 246°
2026-04-26 06:28 59.51442 21.80916 35343 ft 470 kts 246°
2026-04-26 06:28 59.49815 21.75235 35570 ft 470 kts 246°
2026-04-26 06:28 59.48227 21.69705 35762 ft 470 kts 245°
2026-04-26 06:29 59.46616 21.64113 35827 ft 470 kts 245°
2026-04-26 06:29 59.43392 21.52952 35833 ft 469 kts 245°
2026-04-26 06:30 59.40174 21.41820 35843 ft 469 kts 245°
2026-04-26 06:30 59.36936 21.30706 35851 ft 469 kts 245°
2026-04-26 06:31 59.33688 21.19594 35852 ft 470 kts 246°
2026-04-26 06:31 59.30438 21.08499 35862 ft 470 kts 246°
2026-04-26 06:32 59.27166 20.97420 35867 ft 471 kts 246°
2026-04-26 06:32 59.23877 20.86360 35877 ft 471 kts 246°
2026-04-26 06:33 59.20568 20.75287 35886 ft 472 kts 246°
2026-04-26 06:33 59.16974 20.64535 35895 ft 480 kts 236°
2026-04-26 06:34 59.12679 20.54578 35901 ft 480 kts 236°
2026-04-26 06:34 59.08359 20.44652 35910 ft 481 kts 236°
2026-04-26 06:35 59.04031 20.34739 35916 ft 481 kts 236°
2026-04-26 06:35 58.99703 20.24822 35922 ft 481 kts 236°
2026-04-26 06:36 58.95373 20.14938 35926 ft 481 kts 236°
2026-04-26 06:36 58.91024 20.05075 35935 ft 482 kts 236°
2026-04-26 06:37 58.86665 19.95212 35956 ft 482 kts 236°
2026-04-26 06:37 58.82305 19.85388 35952 ft 482 kts 236°
2026-04-26 06:38 58.77934 19.75594 35952 ft 482 kts 236°
2026-04-26 06:38 58.73554 19.65826 35959 ft 481 kts 236°
2026-04-26 06:39 58.69171 19.56097 35953 ft 482 kts 236°
2026-04-26 06:39 58.64774 19.46379 35965 ft 482 kts 236°
2026-04-26 06:40 58.60380 19.36695 35968 ft 481 kts 236°
2026-04-26 06:40 58.55983 19.27022 35972 ft 481 kts 236°
2026-04-26 06:41 58.51569 19.17377 35979 ft 481 kts 236°
2026-04-26 06:41 58.47149 19.07774 35984 ft 481 kts 236°
2026-04-26 06:42 58.42732 18.98192 35991 ft 481 kts 236°
2026-04-26 06:42 58.38305 18.88645 36003 ft 481 kts 236°
2026-04-26 06:43 58.33860 18.79113 36003 ft 481 kts 236°
2026-04-26 06:43 58.29418 18.69597 36013 ft 481 kts 236°
2026-04-26 06:44 58.24973 18.60103 36019 ft 481 kts 236°
2026-04-26 06:44 58.20514 18.50642 36031 ft 481 kts 236°
2026-04-26 06:45 58.16045 18.41209 36037 ft 481 kts 236°
2026-04-26 06:45 58.11584 18.31809 36042 ft 480 kts 236°
2026-04-26 06:46 58.07120 18.22437 36043 ft 479 kts 236°
2026-04-26 06:46 58.02654 18.13109 36047 ft 479 kts 236°
2026-04-26 06:47 57.98208 18.03880 36055 ft 478 kts 236°
2026-04-26 06:47 57.93734 17.94609 36060 ft 478 kts 237°
2026-04-26 06:48 57.89264 17.85367 36067 ft 477 kts 237°
2026-04-26 06:48 57.84787 17.76162 36073 ft 477 kts 237°
2026-04-26 06:49 57.80311 17.66990 36074 ft 476 kts 237°
2026-04-26 06:49 57.75837 17.57853 36078 ft 475 kts 237°
2026-04-26 06:50 57.71356 17.48767 36083 ft 474 kts 237°
2026-04-26 06:50 57.66887 17.39722 36090 ft 473 kts 237°
2026-04-26 06:51 57.62428 17.30727 36094 ft 471 kts 237°
2026-04-26 06:51 57.55744 17.17318 36103 ft 470 kts 237°
2026-04-26 06:52 57.51283 17.08436 36113 ft 469 kts 237°
2026-04-26 06:52 57.47554 17.01020 36111 ft 468 kts 237°
2026-04-26 06:53 57.43112 16.92200 36112 ft 467 kts 237°
2026-04-26 06:53 57.38677 16.83446 36116 ft 466 kts 237°
2026-04-26 06:54 57.34230 16.74708 36121 ft 465 kts 237°
2026-04-26 06:54 57.29791 16.66014 36120 ft 465 kts 238°
2026-04-26 06:55 57.25350 16.57336 36121 ft 464 kts 238°
2026-04-26 06:55 57.20908 16.48693 36123 ft 464 kts 237°
2026-04-26 06:56 57.16484 16.40125 36128 ft 464 kts 237°
2026-04-26 06:56 57.12002 16.31462 36132 ft 464 kts 237°
2026-04-26 06:57 57.07540 16.22883 36138 ft 464 kts 237°
2026-04-26 06:57 57.03109 16.14388 36138 ft 464 kts 237°
2026-04-26 06:58 56.98642 16.05863 36143 ft 464 kts 237°
2026-04-26 06:58 56.94164 15.97345 36145 ft 464 kts 237°
2026-04-26 06:59 56.89689 15.88855 36147 ft 463 kts 237°
2026-04-26 06:59 56.85209 15.80384 36153 ft 464 kts 237°
2026-04-26 07:00 56.80713 15.71939 36158 ft 464 kts 237°
2026-04-26 07:00 56.76212 15.63514 36160 ft 464 kts 237°
2026-04-26 07:01 56.71679 15.55052 36168 ft 463 kts 237°
2026-04-26 07:01 56.67208 15.46723 36172 ft 463 kts 237°
2026-04-26 07:02 56.62700 15.38362 36187 ft 463 kts 237°
2026-04-26 07:02 56.58190 15.30030 36185 ft 463 kts 237°
2026-04-26 07:03 56.53674 15.21726 36184 ft 462 kts 237°
2026-04-26 07:03 56.49127 15.13389 36181 ft 462 kts 237°
2026-04-26 07:04 56.44644 15.05191 36181 ft 461 kts 237°
2026-04-26 07:04 56.40129 14.96962 36175 ft 461 kts 237°
2026-04-26 07:05 56.35619 14.88761 36179 ft 460 kts 237°
2026-04-26 07:05 56.31100 14.80588 36187 ft 460 kts 237°
2026-04-26 07:06 56.26573 14.72440 36199 ft 460 kts 236°
2026-04-26 07:06 56.22048 14.64334 36206 ft 460 kts 236°
2026-04-26 07:07 56.17509 14.56228 36217 ft 459 kts 236°
2026-04-26 07:07 56.12982 14.48152 36222 ft 459 kts 236°
2026-04-26 07:08 56.08454 14.40093 36236 ft 459 kts 236°
2026-04-26 07:08 56.03920 14.32065 36248 ft 458 kts 236°
2026-04-26 07:09 55.99383 14.24060 36257 ft 458 kts 236°
2026-04-26 07:09 55.94844 14.16082 36259 ft 458 kts 235°
2026-04-26 07:11 55.83531 13.96326 36257 ft 456 kts 235°
2026-04-26 07:11 55.78999 13.88457 36255 ft 455 kts 235°
2026-04-26 07:12 55.74466 13.80615 36259 ft 455 kts 234°
2026-04-26 07:12 55.69934 13.72792 36257 ft 454 kts 234°
2026-04-26 07:13 55.65403 13.64996 36257 ft 454 kts 234°
2026-04-26 07:13 55.60869 13.57220 36255 ft 454 kts 234°
2026-04-26 07:14 55.56328 13.49479 36254 ft 453 kts 234°
2026-04-26 07:14 55.54055 13.45617 36422 ft 454 kts 234°
2026-04-26 07:14 55.51784 13.41761 36753 ft 452 kts 234°
2026-04-26 07:14 55.49522 13.37920 37040 ft 452 kts 233°
2026-04-26 07:15 55.47256 13.34074 37307 ft 451 kts 233°
2026-04-26 07:15 55.44991 13.30239 37557 ft 451 kts 233°
2026-04-26 07:15 55.42730 13.26417 37804 ft 451 kts 233°
2026-04-26 07:15 55.40465 13.22599 38047 ft 451 kts 233°
2026-04-26 07:16 55.38198 13.18786 38227 ft 451 kts 233°
2026-04-26 07:16 55.33659 13.11169 38259 ft 451 kts 232°
2026-04-26 07:17 55.29123 13.03587 38259 ft 450 kts 232°
2026-04-26 07:17 55.24586 12.96015 38268 ft 450 kts 232°
2026-04-26 07:18 55.20043 12.88459 38268 ft 450 kts 232°
2026-04-26 07:18 55.15502 12.80928 38270 ft 450 kts 232°
2026-04-26 07:19 55.10954 12.73408 38281 ft 450 kts 232°
2026-04-26 07:19 55.06394 12.65904 38283 ft 451 kts 231°
2026-04-26 07:20 55.01824 12.58415 38272 ft 451 kts 231°
2026-04-26 07:20 54.97256 12.50948 38274 ft 450 kts 231°
2026-04-26 07:21 54.92686 12.43499 38280 ft 450 kts 231°
2026-04-26 07:21 54.88111 12.36070 38281 ft 450 kts 231°
2026-04-26 07:22 54.83540 12.28669 38285 ft 449 kts 230°
2026-04-26 07:22 54.78963 12.21285 38286 ft 449 kts 230°
2026-04-26 07:23 54.74382 12.13913 38285 ft 449 kts 230°
2026-04-26 07:23 54.69800 12.06573 38294 ft 449 kts 230°
2026-04-26 07:24 54.65210 11.99251 38303 ft 449 kts 230°
2026-04-26 07:24 54.60667 11.91991 38300 ft 448 kts 230°
2026-04-26 07:25 54.56088 11.84699 38301 ft 448 kts 229°
2026-04-26 07:25 54.51496 11.77440 38299 ft 448 kts 229°
2026-04-26 07:26 54.46898 11.70205 38300 ft 448 kts 229°
2026-04-26 07:26 54.42284 11.63009 38304 ft 448 kts 228°
2026-04-26 07:27 54.37639 11.55870 38309 ft 448 kts 228°
2026-04-26 07:27 54.32987 11.48762 38315 ft 448 kts 227°
2026-04-26 07:28 54.28332 11.41668 38311 ft 448 kts 227°
2026-04-26 07:28 54.23677 11.34595 38314 ft 447 kts 227°
2026-04-26 07:29 54.19031 11.27535 38316 ft 447 kts 227°
2026-04-26 07:29 54.14391 11.20493 38318 ft 446 kts 227°
2026-04-26 07:30 54.09743 11.13483 38319 ft 446 kts 227°
2026-04-26 07:30 54.05095 11.06510 38325 ft 445 kts 227°
2026-04-26 07:31 54.00447 10.99545 38331 ft 445 kts 226°
2026-04-26 07:31 53.95809 10.92607 38333 ft 444 kts 226°
2026-04-26 07:32 53.91171 10.85692 38341 ft 444 kts 226°
2026-04-26 07:32 53.86532 10.78793 38347 ft 443 kts 226°
2026-04-26 07:33 53.81900 10.71928 38348 ft 443 kts 226°
2026-04-26 07:33 53.77260 10.65082 38345 ft 442 kts 226°
2026-04-26 07:34 53.72628 10.58254 38343 ft 442 kts 226°
2026-04-26 07:34 53.68026 10.51503 38341 ft 441 kts 226°
2026-04-26 07:35 53.63357 10.44692 38356 ft 441 kts 225°
2026-04-26 07:35 53.58722 10.37935 38351 ft 440 kts 225°
2026-04-26 07:36 53.54123 10.31236 38346 ft 440 kts 225°
2026-04-26 07:36 53.49498 10.24516 38334 ft 440 kts 225°
2026-04-26 07:37 53.44864 10.17808 38339 ft 439 kts 225°
2026-04-26 07:37 53.40232 10.11138 38347 ft 439 kts 225°
2026-04-26 07:38 53.36345 10.05557 38331 ft 439 kts 225°
2026-04-26 07:38 53.31710 9.98917 38344 ft 439 kts 224°
2026-04-26 07:39 53.27081 9.92291 38338 ft 438 kts 224°
2026-04-26 07:39 53.22444 9.85674 38338 ft 438 kts 224°
2026-04-26 07:40 53.17836 9.79123 38339 ft 438 kts 224°
2026-04-26 07:40 53.13198 9.72560 38345 ft 438 kts 224°
2026-04-26 07:41 53.08557 9.66009 38353 ft 437 kts 224°
2026-04-26 07:41 53.03921 9.59476 38343 ft 437 kts 224°
2026-04-26 07:42 52.99282 9.52960 38342 ft 436 kts 223°
2026-04-26 07:42 52.94643 9.46469 38347 ft 436 kts 223°
2026-04-26 07:43 52.89995 9.40009 38347 ft 436 kts 223°
2026-04-26 07:43 52.85266 9.33710 38346 ft 436 kts 221°
2026-04-26 07:44 52.80503 9.27476 38345 ft 436 kts 221°
2026-04-26 07:44 52.75759 9.21236 38348 ft 436 kts 221°
2026-04-26 07:45 52.71024 9.14998 38345 ft 435 kts 221°
2026-04-26 07:45 52.66290 9.08771 38346 ft 435 kts 221°
2026-04-26 07:46 52.61549 9.02571 38350 ft 435 kts 221°
2026-04-26 07:46 52.56806 8.96381 38349 ft 435 kts 221°
2026-04-26 07:47 52.52067 8.90212 38351 ft 435 kts 220°
2026-04-26 07:47 52.47320 8.84066 38352 ft 435 kts 220°
2026-04-26 07:48 52.42582 8.77917 38349 ft 434 kts 220°
2026-04-26 07:48 52.37836 8.71774 38349 ft 434 kts 220°
2026-04-26 07:49 52.33123 8.65709 38358 ft 434 kts 220°
2026-04-26 07:49 52.28372 8.59618 38340 ft 434 kts 221°
2026-04-26 07:50 52.22175 8.48986 38348 ft 431 kts 229°
2026-04-26 07:50 52.18141 8.41742 38351 ft 431 kts 229°
2026-04-26 07:51 52.14099 8.34532 38354 ft 431 kts 229°
2026-04-26 07:51 52.10047 8.27339 38350 ft 431 kts 229°
2026-04-26 07:52 52.05999 8.20135 38348 ft 431 kts 229°
2026-04-26 07:52 52.01952 8.12949 38354 ft 431 kts 229°
2026-04-26 07:53 51.97895 8.05778 38355 ft 431 kts 229°
2026-04-26 07:53 51.93824 7.98618 38357 ft 432 kts 229°
2026-04-26 07:54 51.89751 7.91467 38355 ft 432 kts 229°
2026-04-26 07:54 51.85674 7.84329 38357 ft 432 kts 229°
2026-04-26 07:55 51.81589 7.77189 38353 ft 432 kts 228°
2026-04-26 07:55 51.77494 7.70067 38348 ft 433 kts 228°
2026-04-26 07:56 51.73396 7.63040 38343 ft 433 kts 224°
2026-04-26 07:56 51.68395 7.57638 38345 ft 436 kts 205°
2026-04-26 07:57 51.62622 7.54524 38339 ft 438 kts 199°
2026-04-26 07:57 51.56797 7.51609 38341 ft 439 kts 199°
2026-04-26 07:58 51.51274 7.47624 38340 ft 435 kts 216°
2026-04-26 07:58 51.46973 7.40929 38337 ft 431 kts 236°
2026-04-26 07:59 51.44016 7.32580 38337 ft 431 kts 243°
2026-04-26 07:59 51.40838 7.24440 38343 ft 432 kts 234°
2026-04-26 08:00 51.37237 7.16737 38356 ft 433 kts 234°
2026-04-26 08:00 51.33632 7.09020 38361 ft 433 kts 234°
2026-04-26 08:01 51.30023 7.01295 38368 ft 433 kts 234°
2026-04-26 08:01 51.26411 6.93589 38373 ft 433 kts 234°
2026-04-26 08:02 51.22785 6.85900 38378 ft 434 kts 234°
2026-04-26 08:02 51.19154 6.78217 38376 ft 433 kts 234°
2026-04-26 08:03 51.15522 6.70545 38369 ft 434 kts 234°
2026-04-26 08:03 51.11886 6.62884 38369 ft 434 kts 234°
2026-04-26 08:04 51.08144 6.55353 38369 ft 435 kts 227°
2026-04-26 08:04 51.03861 6.48564 38356 ft 435 kts 226°
2026-04-26 08:05 50.99561 6.41774 38345 ft 435 kts 226°
2026-04-26 08:05 50.95265 6.35009 38348 ft 436 kts 226°
2026-04-26 08:06 50.90957 6.28241 38128 ft 437 kts 226°
2026-04-26 08:06 50.88781 6.24828 37176 ft 444 kts 226°
2026-04-26 08:06 50.86572 6.21364 36326 ft 449 kts 226°
2026-04-26 08:07 50.84348 6.17880 35548 ft 452 kts 226°
2026-04-26 08:07 50.82102 6.14371 34793 ft 454 kts 226°
2026-04-26 08:07 50.79847 6.10858 34007 ft 456 kts 225°
2026-04-26 08:07 50.77584 6.07339 33132 ft 458 kts 225°
2026-04-26 08:08 50.75314 6.03807 32295 ft 456 kts 226°
2026-04-26 08:08 50.73120 6.00206 31390 ft 455 kts 228°
2026-04-26 08:08 50.71024 5.96485 30696 ft 448 kts 230°
2026-04-26 08:08 50.69084 5.92750 30086 ft 435 kts 237°
2026-04-26 08:09 50.67741 5.88561 29283 ft 423 kts 252°
2026-04-26 08:09 50.67119 5.84107 28144 ft 413 kts 266°
2026-04-26 08:09 50.67212 5.79628 27002 ft 406 kts 280°
2026-04-26 08:09 50.68028 5.75378 26303 ft 405 kts 295°
2026-04-26 08:10 50.69277 5.71451 25933 ft 398 kts 296°
2026-04-26 08:10 50.70515 5.67571 25509 ft 394 kts 296°
2026-04-26 08:10 50.71739 5.63719 25093 ft 391 kts 296°
2026-04-26 08:10 50.72956 5.59892 24652 ft 388 kts 296°
2026-04-26 08:11 50.74162 5.56101 24223 ft 387 kts 296°
2026-04-26 08:11 50.75370 5.52311 23772 ft 385 kts 296°
2026-04-26 08:11 50.76573 5.48543 23301 ft 383 kts 296°
2026-04-26 08:11 50.77767 5.44793 22846 ft 380 kts 296°
2026-04-26 08:12 50.78947 5.41077 22410 ft 377 kts 296°
2026-04-26 08:12 50.80120 5.37382 21947 ft 374 kts 296°
2026-04-26 08:12 50.81281 5.33719 21501 ft 372 kts 296°
2026-04-26 08:12 50.82435 5.30077 21031 ft 369 kts 296°
2026-04-26 08:13 50.83576 5.26468 20588 ft 366 kts 296°
2026-04-26 08:13 50.84708 5.22871 20144 ft 364 kts 296°
2026-04-26 08:13 50.85832 5.19293 19687 ft 361 kts 296°
2026-04-26 08:13 50.86927 5.15735 19220 ft 359 kts 293°
2026-04-26 08:14 50.87657 5.11980 18771 ft 357 kts 281°
2026-04-26 08:14 50.87905 5.08236 18281 ft 355 kts 274°
2026-04-26 08:14 50.88076 5.04358 17835 ft 351 kts 274°
2026-04-26 08:14 50.88246 5.00519 17390 ft 348 kts 275°
2026-04-26 08:15 50.88418 4.96664 16946 ft 344 kts 275°
2026-04-26 08:15 50.88585 4.92908 16510 ft 341 kts 275°
2026-04-26 08:15 50.88749 4.89177 16071 ft 338 kts 275°
2026-04-26 08:15 50.88909 4.85527 15649 ft 335 kts 275°
2026-04-26 08:16 50.89066 4.81858 15221 ft 333 kts 275°
2026-04-26 08:16 50.89220 4.78213 14799 ft 331 kts 275°
2026-04-26 08:16 50.89371 4.74595 14375 ft 329 kts 275°
2026-04-26 08:16 50.89520 4.70996 13940 ft 327 kts 275°
2026-04-26 08:17 50.89669 4.67424 13504 ft 324 kts 275°
2026-04-26 08:17 50.89815 4.63882 13098 ft 321 kts 275°
2026-04-26 08:17 50.89957 4.60372 12691 ft 318 kts 275°
2026-04-26 08:17 50.90100 4.56880 12296 ft 316 kts 275°
2026-04-26 08:18 50.90248 4.53419 11899 ft 314 kts 276°
2026-04-26 08:18 50.90484 4.49953 11236 ft 321 kts 279°
2026-04-26 08:18 50.90795 4.46454 10784 ft 319 kts 280°
2026-04-26 08:18 50.91130 4.42992 10377 ft 317 kts 280°
2026-04-26 08:19 50.91464 4.39568 10115 ft 309 kts 280°
2026-04-26 08:19 50.91776 4.36256 9977 ft 298 kts 280°
2026-04-26 08:19 50.92068 4.33057 9782 ft 290 kts 279°
2026-04-26 08:19 50.92353 4.29895 9388 ft 289 kts 279°
2026-04-26 08:20 50.92633 4.26754 9006 ft 289 kts 279°
2026-04-26 08:20 50.92911 4.23616 8698 ft 285 kts 279°
2026-04-26 08:20 50.93186 4.20499 8227 ft 284 kts 279°
2026-04-26 08:20 50.93226 4.17378 7812 ft 284 kts 263°
2026-04-26 08:21 50.92638 4.14405 7429 ft 283 kts 244°
2026-04-26 08:21 50.91486 4.11896 7021 ft 282 kts 224°
2026-04-26 08:21 50.89938 4.10004 6593 ft 281 kts 209°
2026-04-26 08:21 50.88118 4.08944 6180 ft 279 kts 189°
2026-04-26 08:22 50.86193 4.08959 5765 ft 277 kts 167°
2026-04-26 08:22 50.84394 4.10000 5354 ft 275 kts 154°
2026-04-26 08:22 50.82687 4.11298 4931 ft 266 kts 146°
2026-04-26 08:22 50.81521 4.13343 4566 ft 242 kts 109°
2026-04-26 08:23 50.81362 4.15824 4231 ft 220 kts 75°
2026-04-26 08:23 50.81916 4.17958 3949 ft 201 kts 63°
2026-04-26 08:23 50.82474 4.19875 3669 ft 184 kts 64°
2026-04-26 08:23 50.82986 4.21657 3405 ft 172 kts 64°
2026-04-26 08:24 50.83304 4.22771 3276 ft 165 kts 64°
2026-04-26 08:24 50.83770 4.24408 3026 ft 160 kts 64°
2026-04-26 08:24 50.84222 4.25984 2830 ft 148 kts 64°
2026-04-26 08:24 50.84641 4.27422 2613 ft 140 kts 64°
2026-04-26 08:25 50.85044 4.28809 2438 ft 138 kts 65°
2026-04-26 08:25 50.85437 4.30165 2241 ft 136 kts 66°
2026-04-26 08:25 50.85838 4.31540 2078 ft 136 kts 66°
2026-04-26 08:25 50.86231 4.32893 1898 ft 135 kts 66°
2026-04-26 08:26 50.86620 4.34239 1724 ft 135 kts 66°
2026-04-26 08:26 50.87011 4.35589 1535 ft 134 kts 66°
2026-04-26 08:26 50.87400 4.36931 1361 ft 134 kts 66°
2026-04-26 08:26 50.87785 4.38262 1179 ft 132 kts 66°
2026-04-26 08:27 50.88169 4.39590 1009 ft 133 kts 66°
2026-04-26 08:27 50.88548 4.40914 836 ft 132 kts 65°
2026-04-26 08:27 50.88926 4.42238 691 ft 132 kts 66°
2026-04-26 08:27 50.89309 4.43557 526 ft 132 kts 65°
2026-04-26 08:28 50.89687 4.44848 334 ft 131 kts 65°
2026-04-26 08:28 50.90064 4.46164 159 ft 131 kts 66°
2026-04-26 08:28 50.90401 4.47328 122 ft 97 kts 65°
2026-04-26 08:28 50.90603 4.48028 119 ft 37 kts 65°
2026-04-26 08:29 50.90656 4.48246 119 ft 13 kts 84°
2026-04-26 08:29 50.90624 4.48388 119 ft 14 kts 120°
2026-04-26 08:29 50.90578 4.48515 117 ft 12 kts 121°
2026-04-26 08:29 50.90542 4.48591 118 ft 7 kts 148°
2026-04-26 08:30 50.90503 4.48575 117 ft 4 kts 232°
2026-04-26 08:30 50.90486 4.48524 120 ft 6 kts 244°
2026-04-26 08:30 50.90477 4.48493 116 ft 3 kts 245°
2026-04-26 08:30 50.90464 4.48451 119 ft 5 kts 245°
2026-04-26 08:31 50.90442 4.48436 119 ft 4 kts 174°
2026-04-26 08:31 50.90416 4.48453 118 ft 4 kts 155°
2026-04-26 08:31 50.90395 4.48468 118 ft 2 kts 155°
2026-04-26 08:31 50.90381 4.48479 120 ft 1 kts 155°
2026-04-26 08:32 50.90375 4.48483 120 ft 0 kts 155°